FW4298 Weather Reports


Display with metric or nautical units.
time (UTC)temp
F
wind
direction
speed
MPH
gust
MPH
rain 1hr
in
rain 24hr
in
rain mn
in
humidity
%
barometer
mb
20260504081138 62 165 6.0 16.0 0.00 0.00 0.00 82 1016.2
20260504080638 62 175 6.0 14.0 0.00 0.00 0.00 81 1016.5
20260504080405 62 185 6.0 14.0 0.00 0.00 0.00 81 1016.5
20260504070132 63 185 6.0 11.0 0.00 0.00 0.00 78 1017.6
20260504050603 64 182 6.0 12.0 0.00 0.00 0.00 70 1018.7
20260504045603 63 151 5.0 13.0 0.00 0.00 0.00 71 1018.7
20260504045102 63 143 4.0 11.0 0.00 0.00 0.00 70 1018.6
20260504044602 62 156 3.0 8.0 0.00 0.00 0.00 70 1018.7
20260504044103 62 165 3.0 7.0 0.00 0.00 0.00 70 1018.7
20260504043602 62 153 3.0 7.0 0.00 0.00 0.00 70 1018.8
20260504043103 62 178 3.0 7.0 0.00 0.00 0.00 70 1018.9
20260504042826 62 160 3.0 8.0 0.00 0.00 0.00 71 1018.9
20260504042102 62 164 3.0 8.0 0.00 0.00 0.00 71 1018.9
20260504041603 61 149 1.0 5.0 0.00 0.00 0.00 71 1018.9
20260504041102 61 164 0.0 4.0 0.00 0.00 0.00 72 1018.8
20260504040603 61 164 1.0 4.0 0.00 0.00 0.00 72 1018.9
20260504040324 61 164 1.0 4.0 0.00 0.00 0.00 71 1018.9
20260504035842 62 164 1.0 4.0 0.00 0.00 0.00 71 1018.9
20260504035548 62 164 1.0 4.0 0.00 0.00 0.00 71 1018.9
20260504034828 62 164 1.0 2.0 0.00 0.00 0.00 70 1019.0
20260504034102 63 164 1.0 2.0 0.00 0.00 0.00 70 1019.0
20260504033603 63 164 1.0 2.0 0.00 0.00 0.00 68 1019.0
20260504033102 64 164 1.0 2.0 0.00 0.00 0.00 67 1019.0
20260504032603 64 164 1.0 4.0 0.00 0.00 0.00 66 1019.0
20260504032342 64 164 2.0 5.0 0.00 0.00 0.00 66 1018.9
20260504031603 64 164 2.0 5.0 0.00 0.00 0.00 65 1018.7
20260504031103 64 164 2.0 4.0 0.00 0.00 0.00 65 1018.8
20260504030602 65 164 2.0 5.0 0.00 0.00 0.00 65 1018.9
20260504030326 65 163 2.0 5.0 0.00 0.00 0.00 65 1018.9
20260504025603 65 165 2.0 6.0 0.00 0.00 0.00 64 1019.0
20260504025328 65 164 2.0 6.0 0.00 0.00 0.00 64 1019.0
20260504024608 65 157 2.0 5.0 0.00 0.00 0.00 64 1018.9
20260504024106 65 158 2.0 5.0 0.00 0.00 0.00 63 1018.9
20260504023554 65 159 1.0 5.0 0.00 0.00 0.00 64 1019.0
20260504023048 66 168 1.0 3.0 0.00 0.00 0.00 62 1019.0
20260504022541 66 168 1.0 5.0 0.00 0.00 0.00 62 1019.0
20260504022037 66 168 2.0 5.0 0.00 0.00 0.00 61 1018.7
20260504022031 66 171 1.0 4.0 0.00 0.00 0.00 60 1018.7
20260504021800 67 172 2.0 4.0 0.00 0.00 0.00 60 1018.8
20260504020535 67 170 2.0 5.0 0.00 0.00 0.00 59 1018.9
20260504020034 67 174 2.0 5.0 0.00 0.00 0.00 58 1018.9
20260504015541 68 157 2.0 5.0 0.00 0.00 0.00 58 1018.7
20260504015037 68 156 1.0 4.0 0.00 0.00 0.00 57 1018.5
20260504014805 68 157 1.0 5.0 0.00 0.00 0.00 57 1018.6
20260504014035 69 157 2.0 5.0 0.00 0.00 0.00 56 1018.4
20260504013533 69 153 2.0 5.0 0.00 0.00 0.00 56 1018.4
20260504013030 69 154 2.0 5.0 0.00 0.00 0.00 55 1018.3
20260504012530 70 165 2.0 5.0 0.00 0.00 0.00 55 1018.4
20260504012031 70 155 2.0 6.0 0.00 0.00 0.00 55 1018.2
20260504011530 70 156 2.0 6.0 0.00 0.00 0.00 54 1018.2
20260504011030 71 157 2.0 7.0 0.00 0.00 0.00 54 1018.3
20260504010530 71 160 2.0 7.0 0.00 0.00 0.00 54 1018.3
20260504010030 71 155 2.0 8.0 0.00 0.00 0.00 53 1018.4
20260504005530 72 153 2.0 8.0 0.00 0.00 0.00 53 1018.3
20260504005031 72 159 2.0 8.0 0.00 0.00 0.00 53 1018.3
20260504004530 72 145 3.0 8.0 0.00 0.00 0.00 52 1018.3
20260504004031 73 161 4.0 11.0 0.00 0.00 0.00 50 1018.2
20260504003530 73 170 5.0 11.0 0.00 0.00 0.00 50 1018.2
20260504003031 73 166 4.0 9.0 0.00 0.00 0.00 50 1018.2
20260504002530 74 173 4.0 11.0 0.00 0.00 0.00 50 1018.3
20260504002506 74 155 4.0 11.0 0.00 0.00 0.00 49 1018.4
20260504002500 74 167 4.0 8.0 0.00 0.00 0.00 48 1018.3
20260504001031 74 154 5.0 11.0 0.00 0.00 0.00 48 1018.4
20260504000530 74 169 5.0 11.0 0.00 0.00 0.00 48 1018.5
20260504000031 74 160 5.0 11.0 0.00 0.00 0.00 47 1018.6
20260503235530 75 181 5.0 11.0 0.00 0.00 0.00 49 1018.7
20260503235030 75 178 4.0 11.0 0.00 0.00 0.00 48 1019.0
20260503235012 75 158 4.0 8.0 0.00 0.00 0.00 48 1018.9
20260503234031 76 178 4.0 9.0 0.00 0.00 0.00 47 1018.9
20260503233528 76 163 5.0 11.0 0.00 0.00 0.00 48 1018.8
20260503233255 76 144 5.0 11.0 0.00 0.00 0.00 47 1018.9
20260503232515 76 165 4.0 9.0 0.00 0.00 0.00 47 1019.0
20260503232010 76 155 4.0 8.0 0.00 0.00 0.00 47 1019.0
20260503231505 76 166 4.0 8.0 0.00 0.00 0.00 46 1019.0
20260503231006 76 146 4.0 12.0 0.00 0.00 0.00 44 1019.0
20260503230506 77 171 4.0 12.0 0.00 0.00 0.00 44 1018.9
20260503230238 77 166 4.0 12.0 0.00 0.00 0.00 44 1018.8
20260503225506 78 200 6.0 15.0 0.00 0.00 0.00 42 1018.7
20260503225005 78 182 6.0 15.0 0.00 0.00 0.00 44 1019.0
20260503224503 78 171 6.0 17.0 0.00 0.00 0.00 43 1019.1
20260503224004 78 180 7.0 17.0 0.00 0.00 0.00 44 1019.0
20260503223504 78 175 7.0 13.0 0.00 0.00 0.00 45 1019.0
20260503223004 78 146 7.0 14.0 0.00 0.00 0.00 43 1019.2
20260503222734 78 207 7.0 14.0 0.00 0.00 0.00 42 1019.2
20260503222233 78 173 6.0 12.0 0.00 0.00 0.00 43 1019.3
20260503221504 78 202 6.0 14.0 0.00 0.00 0.00 42 1019.3
20260503221004 78 185 6.0 14.0 0.00 0.00 0.00 41 1019.4
20260503220504 79 201 6.0 14.0 0.00 0.00 0.00 41 1019.5
20260503220004 78 159 6.0 13.0 0.00 0.00 0.00 43 1019.5
20260503215504 78 161 6.0 14.0 0.00 0.00 0.00 44 1019.6
20260503215001 78 155 6.0 14.0 0.00 0.00 0.00 44 1019.5
20260503214455 78 172 7.0 17.0 0.00 0.00 0.00 42 1019.7
20260503213949 78 196 6.0 17.0 0.00 0.00 0.00 44 1019.7
20260503213450 79 182 6.0 16.0 0.00 0.00 0.00 42 1019.9
20260503212950 79 161 5.0 16.0 0.00 0.00 0.00 44 1020.2
20260503212450 79 164 5.0 12.0 0.00 0.00 0.00 44 1020.2
20260503212218 78 167 6.0 14.0 0.00 0.00 0.00 44 1020.2
20260503211447 78 176 6.0 14.0 0.00 0.00 0.00 44 1020.4
20260503210947 78 173 6.0 12.0 0.00 0.00 0.00 42 1020.3
20260503210448 78 169 6.0 12.0 0.00 0.00 0.00 41 1020.4
20260503205948 79 156 5.0 12.0 0.00 0.00 0.00 43 1020.6
20260503205448 79 194 7.0 14.0 0.00 0.00 0.00 43 1020.7
20260503204947 80 178 8.0 14.0 0.00 0.00 0.00 44 1020.8
20260503204447 80 185 6.0 13.0 0.00 0.00 0.00 40 1020.6
20260503203948 80 115 5.0 12.0 0.00 0.00 0.00 43 1020.7
20260503203447 80 172 6.0 14.0 0.00 0.00 0.00 41 1020.8
20260503202948 79 170 6.0 14.0 0.00 0.00 0.00 44 1021.1
20260503202936 79 123 5.0 11.0 0.00 0.00 0.00 43 1020.9
20260503201947 79 170 5.0 16.0 0.00 0.00 0.00 40 1021.1
20260503201447 79 155 5.0 16.0 0.00 0.00 0.00 40 1021.3
20260503200947 79 165 7.0 16.0 0.00 0.00 0.00 42 1021.4
20260503200447 80 207 6.0 16.0 0.00 0.00 0.00 42 1021.3
20260503200213 80 194 6.0 14.0 0.00 0.00 0.00 41 1021.4
20260503195446 79 163 6.0 17.0 0.00 0.00 0.00 40 1021.6
20260503194946 79 162 7.0 17.0 0.00 0.00 0.00 42 1021.6
20260503194446 79 176 7.0 19.0 0.00 0.00 0.00 42 1021.7
20260503193946 79 182 6.0 19.0 0.00 0.00 0.00 42 1021.7
20260503193445 79 155 6.0 17.0 0.00 0.00 0.00 40 1021.8
20260503192945 79 175 7.0 17.0 0.00 0.00 0.00 43 1021.8
20260503192445 79 166 7.0 14.0 0.00 0.00 0.00 41 1021.8
20260503191945 79 142 7.0 15.0 0.00 0.00 0.00 41 1021.9
20260503191445 78 159 7.0 15.0 0.00 0.00 0.00 41 1021.9
20260503190945 78 160 7.0 17.0 0.00 0.00 0.00 43 1021.9
20260503190445 78 216 7.0 17.0 0.00 0.00 0.00 42 1022.2
20260503185945 78 184 6.0 14.0 0.00 0.00 0.00 44 1022.1
20260503185703 78 146 6.0 15.0 0.00 0.00 0.00 45 1022.2
20260503184945 78 197 6.0 15.0 0.00 0.00 0.00 43 1022.3
20260503184446 78 174 6.0 15.0 0.00 0.00 0.00 42 1022.4
20260503183946 78 128 6.0 15.0 0.00 0.00 0.00 43 1022.4
20260503183445 78 168 6.0 16.0 0.00 0.00 0.00 45 1022.6
20260503182945 77 184 6.0 16.0 0.00 0.00 0.00 44 1022.6
20260503182446 77 150 7.0 15.0 0.00 0.00 0.00 44 1022.7
20260503181946 77 187 6.0 15.0 0.00 0.00 0.00 44 1022.8
20260503181445 78 203 4.0 14.0 0.00 0.00 0.00 43 1022.9
20260503180945 78 240 5.0 14.0 0.00 0.00 0.00 45 1023.0
20260503180446 77 159 6.0 14.0 0.00 0.00 0.00 46 1023.1
20260503175942 77 188 5.0 14.0 0.00 0.00 0.00 42 1023.3
20260503175443 78 163 5.0 13.0 0.00 0.00 0.00 48 1023.5
20260503174943 77 175 5.0 13.0 0.00 0.00 0.00 45 1023.5
20260503174443 77 188 6.0 14.0 0.00 0.00 0.00 45 1023.6
20260503173943 77 180 7.0 14.0 0.00 0.00 0.00 48 1023.7
20260503173440 77 118 7.0 13.0 0.00 0.00 0.00 48 1023.7
20260503172939 77 157 6.0 13.0 0.00 0.00 0.00 46 1023.8
20260503172435 76 152 5.0 13.0 0.00 0.00 0.00 45 1023.8
20260503171934 76 192 5.0 12.0 0.00 0.00 0.00 53 1023.8
20260503171433 76 214 3.0 11.0 0.00 0.00 0.00 51 1024.0
20260503171206 75 190 3.0 10.0 0.00 0.00 0.00 49 1024.1
20260503170433 75 184 4.0 10.0 0.00 0.00 0.00 48 1024.1
20260503160138 73 186 5.0 15.0 0.00 0.00 0.00 52 1024.6
20260503150903 71 209 3.0 7.0 0.00 0.00 0.00 61 1024.6
20260503150404 70 232 4.0 8.0 0.00 0.00 0.00 63 1024.6
20260503150134 70 245 4.0 8.0 0.00 0.00 0.00 63 1024.5
20260503130831 58 239 2.0 5.0 0.00 0.00 0.00 83 1024.1
20260503130330 57 233 1.0 5.0 0.00 0.00 0.00 85 1024.0
20260503110823 48 225 1.0 3.0 0.00 0.00 0.00 94 1022.8
20260503110321 48 224 1.0 3.0 0.00 0.00 0.00 93 1022.7
20260503090308 51 217 1.0 4.0 0.00 0.00 0.00 93 1022.7